Weather History for KLOR - November, 2013

Change the Weather History Date:

Sunday, November 10, 2013

  Actual Average (KDHN) Record (KDHN)
Temperature  
Mean Temperature 62 °F 60 °F  
Max Temperature 75 °F 73 °F 86 °F (1946)
Min Temperature 48 °F 48 °F 31 °F (1956)
Degree Days  
Heating Degree Days 2 6  
Month to date heating degree days 51  
Since 1 July heating degree days 110  
Growing Degree Days 12 (Base 50)    
Moisture  
Dew Point 51 °F    
Average Humidity 77    
Maximum Humidity 93    
Minimum Humidity 41    
Precipitation  
Precipitation 0.00 in 0.14 in 0.58 in (2002)
Month to date precipitation 1.00  
Year to date precipitation 46.39  
Sea Level Pressure  
Sea Level Pressure 30.22 in    
Wind  
Wind Speed 2 mph (NNE)    
Max Wind Speed 8 mph    
Max Gust Speed -    
Visibility 10 miles    
Events      
T = Trace of Precipitation, MM = Missing Value Source: NWS Daily Summary

Daily Weather History Graph

Daily Weather History Graph

Search for Another Location

Airport or City:

Trip Planner

Search our weather history database for the weather conditions in past years. The results will help you decide how hot, cold, wet, or windy it might be!

Date:

Astronomy

Nov. 10, 2013 Rise Set
Actual Time 6:06 AM CST 4:47 PM CST
Civil Twilight 5:40 AM CST 5:12 PM CST
Nautical Twilight 5:11 AM CST 5:41 PM CST
Astronomical Twilight 4:43 AM CST 6:10 PM CST
Moon 12:27 PM CST (11/10) No Moon Set
Length of Visible Light 11h 31m
Length of Day
10h 40m
First Quarter, 56% of the Moon is Illuminated
Nov 10
First Quarter
Nov 17
Full
Nov 25
Last Quarter
Dec 2
New
Dec 9
First Quarter

Hourly Weather History & Observations

Time (CST) Temp. Dew Point Humidity Pressure Visibility Wind Dir Wind Speed Gust Speed Precip Events Conditions
12:53 AM 53.1 °F 51.1 °F 93% 30.20 in 10.0 mi Calm Calm - N/A   Clear
1:53 AM 53.1 °F 51.1 °F 93% 30.20 in 10.0 mi Calm Calm - N/A   Clear
2:53 AM 53.1 °F 51.1 °F 93% 30.20 in 9.0 mi Calm Calm - N/A   Clear
3:53 AM 53.1 °F 51.1 °F 93% 30.21 in 10.0 mi Calm Calm - N/A   Clear
4:53 AM 54.0 °F 51.1 °F 90% 30.22 in 10.0 mi NE 3.5 mph - N/A   Clear
5:53 AM 53.1 °F 50.0 °F 89% 30.25 in 10.0 mi Calm Calm - N/A   Clear
6:53 AM 54.0 °F 51.1 °F 90% 30.27 in 10.0 mi NNE 3.5 mph - N/A   Clear
7:53 AM 60.1 °F 52.0 °F 75% 30.27 in 10.0 mi ENE 3.5 mph - N/A   Clear
8:53 AM 64.0 °F 53.1 °F 67% 30.27 in 10.0 mi NNE 5.8 mph - N/A   Clear
9:53 AM 66.0 °F 55.0 °F 68% 30.26 in 10.0 mi North 3.5 mph - N/A   Clear
10:53 AM 70.0 °F 55.9 °F 61% 30.24 in 10.0 mi North 8.1 mph - N/A   Clear
11:53 AM 72.0 °F 53.1 °F 51% 30.21 in 10.0 mi North 4.6 mph - N/A   Clear
12:53 PM 73.9 °F 52.0 °F 46% 30.19 in 10.0 mi NNE 6.9 mph - N/A   Clear
1:53 PM 73.9 °F 48.9 °F 41% 30.18 in 10.0 mi ESE 3.5 mph - N/A   Clear
2:53 PM 75.0 °F 50.0 °F 41% 30.17 in 10.0 mi Calm Calm - N/A   Clear
3:53 PM 73.0 °F 51.1 °F 46% 30.18 in 10.0 mi NNE 3.5 mph - N/A   Clear
4:53 PM 62.1 °F 52.0 °F 70% 30.19 in 10.0 mi North 3.5 mph - N/A   Clear
5:53 PM 57.9 °F 53.1 °F 84% 30.20 in 10.0 mi Calm Calm - N/A   Clear
6:53 PM 55.9 °F 53.1 °F 90% 30.21 in 10.0 mi Calm Calm - N/A   Clear
7:53 PM 55.0 °F 52.0 °F 89% 30.21 in 10.0 mi Calm Calm - N/A   Clear
8:53 PM 53.1 °F 50.0 °F 89% 30.21 in 10.0 mi Calm Calm - N/A   Clear
9:53 PM 51.1 °F 48.9 °F 92% 30.21 in 10.0 mi Calm Calm - N/A   Clear
10:53 PM 50.0 °F 48.0 °F 93% 30.21 in 10.0 mi Calm Calm - N/A   Mostly Cloudy
11:53 PM 48.9 °F 46.9 °F 93% 30.20 in 9.0 mi Calm Calm - N/A   Scattered Clouds